{"data":{"norad_id":60079,"intl_designator":"2024-114A","name":"KINEIS-1B","alt_names":[],"object_type":"PAYLOAD","status":"ACTIVE","operator":null,"country":"FR","launch_date":"2024-06-20","launch_site_code":"RLLB","launch_vehicle":null,"mission":null,"orbit_class":"UNKNOWN","rcs_meters":null,"size_class":null,"mass_kg":null,"dimensions":null,"purposes":[],"wikipedia_slug":null,"has_3d_model":false,"image_url":null,"decayed_at":null,"tle_current":{"epoch":"2026-05-25T03:24:29.923200Z","epoch_age_seconds":56004,"freshness":"FRESH","line1":"1 60079U 24114A   26145.14201300  .00000641  00000+0  90458-4 0  9993","line2":"2 60079  97.9834 169.4387 0003166 142.5260 217.6173 14.80579407103992","mean_motion":14.80579407,"eccentricity":0.0003166,"inclination_deg":97.9834,"raan_deg":169.4387,"arg_perigee_deg":142.526,"mean_anomaly_deg":217.6173,"bstar":9.0458e-5,"rev_number":10399,"period_min":97.259221166515,"perigee_km":625.27784154254,"apogee_km":629.71380824726,"semimajor_km":7005.6328248949,"source":"CELESTRAK","updated_at":"2026-05-25T13:38:01.825888Z"}}}